Temperature
19 17 17 18 18 19 18 18 18 18 19 19 18 18 17 18 17 17 17 18 18 18 19 19 18 18 18 18 18 17 17 17 17 16 16 16 16 16 16 16 16 16 16 16
17 18 18 19 19 19 18 18 18 18 19 19 18 17 17 17 17 17 17 18 18 19 19 18 18 18 18 18 18 17 17 17 17 16 16 16 16 16 16 16 15 16 16 16
18 19 19 19 19 19 18 18 18 19 18 18 18 17 17 17 17 17 18 18 19 19 19 19 18 18 18 18 18 17 17 17 17 16 16 16 16 16 16 15 15 15 15 15
18 19 19 19 19 19 18 19 19 19 17 16 18 16 16 16 16 16 17 18 18 19 19 19 19 18 18 18 18 17 17 17 17 16 16 16 16 16 16 15 15 15 15 15
18 19 19 19 19 19 19 19 18 18 17 16 16 16 15 15 16 16 16 18 18 19 19 19 19 19 18 18 18 17 17 17 17 16 16 16 16 16 16 15 15 15 15 15
18 19 19 19 19 19 18 17 17 15 15 16 16 16 15 15 16 16 17 17 18 18 19 19 19 19 18 18 18 17 17 17 17 16 16 16 16 16 16 15 15 15 15 15
18 18 19 19 19 18 17 16 16 16 15 15 16 15 15 16 16 16 17 17 18 18 18 18 18 18 18 18 18 17 17 17 17 16 16 16 16 16 16 15 15 15 15 15
17 17 18 19 18 18 17 16 16 16 15 15 15 15 16 17 17 17 17 18 18 18 18 18 18 18 18 18 18 17 17 17 17 16 16 16 16 16 16 15 15 15 15 15
16 16 18 19 19 18 17 16 16 15 15 15 15 15 16 17 17 17 17 17 17 18 18 18 18 18 18 18 18 18 17 17 17 16 16 16 16 16 16 15 15 15 15 15
16 16 17 18 18 18 17 15 14 15 15 15 15 15 15 17 17 16 16 16 17 18 18 18 18 18 18 18 18 17 17 17 17 17 16 16 16 16 16 15 15 15 15 15
16 16 16 17 17 17 16 16 14 13 14 14 15 15 16 16 16 16 16 17 17 18 18 18 18 18 18 18 18 17 17 17 17 17 16 16 16 16 16 15 15 15 15 15
15 14 14 16 17 17 17 16 14 15 14 13 14 14 16 15 15 16 16 17 17 18 18 18 18 18 18 17 17 17 17 17 17 17 16 16 16 16 16 16 15 15 15 15
15 14 14 15 16 16 16 16 15 14 13 12 13 15 16 15 15 16 16 17 17 17 17 18 18 18 18 17 17 17 17 17 17 17 16 16 16 16 16 16 15 15 15 15
15 13 14 15 15 15 16 16 15 14 13 13 13 14 15 15 15 15 16 17 17 17 17 17 17 17 17 17 17 17 17 17 17 16 16 16 16 16 16 16 15 15 15 14
14 14 14 14 15 15 16 16 15 15 14 14 14 14 15 15 15 16 16 17 17 17 17 17 17 17 17 17 17 17 17 17 17 16 16 16 16 16 16 15 15 15 15 14
12 13 14 14 15 15 15 15 15 15 14 14 14 14 14 15 15 15 16 16 16 17 17 17 17 17 17 17 17 17 17 17 16 16 16 16 16 16 15 15 15 15 15 14
11 12 13 13 14 15 14 15 15 15 14 14 14 14 14 14 14 15 16 16 16 17 17 17 17 17 17 17 17 17 17 16 16 16 16 16 16 15 15 15 15 15 15 14
11 11 11 12 13 14 15 15 15 15 14 14 14 14 14 15 16 16 17 17 17 17 17 17 17 17 17 17 17 16 16 16 16 16 16 16 15 15 15 15 15 15 14 14
11 11 10 11 12 13 14 14 14 14 14 14 14 14 15 15 15 15 17 17 17 17 17 17 17 17 17 17 17 16 16 16 16 16 16 16 15 15 15 15 15 15 14 14
10 10 10 10 12 13 14 15 15 15 14 14 14 14 14 14 13 14 17 17 17 17 17 17 17 17 17 17 16 16 16 16 16 16 15 15 15 15 15 15 15 15 14 14
11 10 10 10 11 12 13 14 15 14 14 15 15 14 14 13 14 16 16 17 17 17 17 17 17 17 17 16 16 16 16 16 16 15 15 15 15 15 14 14 14 14 14 14
11 11 10 10 11 12 14 13 13 14 15 15 15 15 15 15 15 16 16 16 16 17 17 17 17 17 16 16 16 16 16 16 15 15 15 15 15 14 14 14 14 14 14 13
10 11 10 11 12 13 14 14 15 15 15 15 15 15 15 15 15 15 15 16 16 16 16 16 16 16 16 16 15 15 16 15 15 15 15 15 14 14 14 14 14 14 13 13
10 10 9 10 11 12 13 14 14 15 15 15 15 15 15 15 15 15 15 15 15 16 16 16 16 16 16 16 15 15 15 15 15 15 15 14 14 14 14 14 13 13 13 13
9 9 9 10 10 12 13 14 14 15 15 15 15 15 15 14 14 15 15 15 15 15 15 15 15 15 15 15 15 15 15 15 15 15 14 14 14 14 14 13 13 13 13 13
9 9 10 11 12 11 13 14 14 14 14 14 14 14 14 14 14 14 14 15 15 15 15 15 15 15 15 15 15 15 15 14 14 14 14 14 14 13 13 13 13 13 13 13
Wind_Speed
3 4 2 6 6 4 4 3 3 4 3 2 5 7 7 5 6 7 8 8 8 9 6 5 5 5 5 5 5 5 5 4 4 2 2 2 1 1 2 4 5 5 4 4
5 2 5 4 4 3 3 2 3 4 2 2 4 6 6 5 7 8 9 10 10 8 5 5 5 5 6 7 6 6 6 5 4 3 2 2 2 1 1 2 4 5 4 4
4 4 1 3 2 3 3 4 4 3 2 2 2 6 5 4 3 4 6 7 8 10 9 7 6 6 6 7 8 7 7 6 5 4 3 3 3 3 2 2 2 3 4 4
2 2 1 2 2 4 3 4 4 3 1 3 1 4 6 5 4 4 6 6 8 8 8 8 8 7 8 8 7 7 7 6 5 5 5 5 3 2 1 0 0 2 4 4
2 0 2 1 2 4 3 1 2 1 2 1 1 1 7 3 5 7 7 8 8 8 9 9 9 9 8 7 7 6 6 5 5 5 6 5 3 2 1 1 2 2 2 3
2 1 2 2 0 2 3 5 5 5 4 1 3 3 6 3 5 6 6 6 6 6 7 7 7 6 6 6 6 6 7 6 5 6 5 6 6 4 4 2 2 1 1 1
5 4 2 1 2 3 5 5 4 4 3 4 2 2 6 6 5 4 5 5 5 5 6 6 7 7 7 8 7 7 7 6 6 6 6 6 6 6 5 4 3 2 1 0
1 4 3 1 3 3 2 6 6 4 4 4 2 4 6 4 4 3 3 2 2 4 5 6 7 7 8 9 8 8 8 7 7 7 6 5 5 4 3 4 3 3 2 2
3 5 4 2 1 6 4 3 5 5 1 2 4 5 6 2 4 4 3 3 1 2 4 6 6 6 6 8 8 9 9 7 7 7 6 5 5 5 4 4 3 2 2 2
6 3 4 3 4 4 4 6 5 4 3 3 5 4 4 5 4 4 3 2 2 1 1 3 4 5 5 5 6 7 8 8 7 7 6 5 5 5 5 4 4 3 3 2
3 3 4 3 1 3 3 3 4 3 4 4 3 6 4 5 4 4 5 4 2 2 2 2 3 5 5 4 4 6 6 6 6 6 6 5 4 4 4 4 4 4 3 3
3 4 2 5 4 3 3 5 6 4 3 4 3 6 4 3 3 3 4 4 2 2 2 2 2 3 3 4 4 5 6 6 6 6 6 6 5 4 4 4 4 4 4 4
3 4 1 5 4 1 1 2 4 4 4 4 4 7 3 3 3 3 3 4 3 2 1 1 2 3 4 4 4 4 5 6 5 5 6 5 5 5 5 5 4 4 4 4
3 3 6 8 6 3 3 3 3 4 4 5 8 8 8 6 5 5 4 4 3 2 2 2 3 4 4 4 4 4 4 4 5 6 6 6 6 6 6 5 4 4 4 4
3 3 5 6 6 4 6 7 6 7 8 8 8 8 10 7 6 6 5 3 3 3 3 4 5 4 4 4 4 4 4 4 5 6 6 6 6 5 5 4 4 4 4 5
2 3 2 4 4 4 6 8 7 8 7 7 6 9 9 7 4 5 5 4 4 6 6 5 5 5 5 6 6 5 5 5 5 6 6 5 5 5 5 5 4 4 4 4
3 4 2 4 4 2 7 8 9 6 6 7 9 9 6 5 6 6 6 6 7 7 7 6 6 7 7 7 7 7 6 5 5 5 5 5 5 5 5 5 5 5 5 4
6 4 3 2 1 7 8 4 6 6 7 7 6 6 6 8 7 6 6 7 8 7 6 6 7 7 6 6 6 6 5 6 6 5 5 5 5 5 4 5 5 5 4 4
6 6 4 3 3 7 7 4 5 5 6 5 6 6 6 4 3 6 6 6 8 8 7 7 7 6 6 6 7 6 6 6 6 6 6 6 6 6 5 6 6 5 4 5
3 4 5 3 3 6 8 4 3 2 6 5 5 6 5 2 2 7 6 5 7 6 5 4 4 3 5 5 6 7 7 7 7 7 7 6 7 7 7 7 5 4 4 5
3 2 5 6 6 8 7 2 4 4 6 4 4 5 5 6 7 6 5 4 5 4 4 3 3 5 6 6 7 8 7 8 8 6 5 5 6 7 6 5 4 4 4 4
7 5 6 5 5 8 3 5 6 7 4 3 4 4 5 6 6 6 5 4 4 3 3 2 3 4 4 6 8 8 8 8 5 5 6 6 6 6 5 5 5 5 5 5
7 7 6 8 8 5 3 5 5 3 4 5 5 5 5 5 6 6 5 4 4 3 3 2 3 3 3 6 8 9 8 6 5 5 6 6 6 5 5 6 6 5 5 5
4 3 4 5 7 7 7 6 5 5 6 6 6 6 5 5 6 5 4 4 4 3 3 2 2 3 4 5 7 8 6 6 7 7 6 5 6 5 4 4 5 6 6 6
6 4 4 6 8 7 7 6 6 6 5 5 5 5 6 5 6 5 5 4 4 4 3 3 4 4 4 4 5 5 5 6 6 6 6 5 5 5 5 5 5 7 7 8
6 7 6 8 8 6 8 7 6 6 7 6 5 5 5 5 6 5 5 4 3 3 2 2 3 4 4 3 4 4 5 6 7 6 6 5 5 5 4 4 3 4 6 8
Wind_Direction
49 78 177 205 190 178 160 181 247 263 255 192 239 259 261 220 207 215 221 221 222 225 230 215 195 176 163 160 157 159 156 154 138 123 119 104 78 35 33 39 47 62 77 90
47 272 233 196 176 168 171 217 264 290 300 201 262 275 272 223 218 220 219 223 222 224 218 207 189 177 176 177 174 172 174 169 165 156 148 132 124 96 58 34 47 50 65 87
184 246 196 152 166 175 220 210 227 246 341 17 345 316 298 282 251 241 228 224 220 214 209 202 191 190 185 187 186 185 184 174 170 153 119 91 68 50 35 23 24 24 51 74
234 274 132 141 189 165 246 238 208 194 105 301 42 299 298 293 290 267 249 229 222 216 205 200 194 190 193 196 189 185 181 173 167 157 148 142 146 159 197 194 37 26 47 67
264 263 122 179 225 174 211 64 114 132 149 340 351 224 294 315 296 283 261 236 225 213 201 200 200 194 193 189 184 182 173 172 167 163 161 155 151 157 131 92 91 62 41 56
275 284 188 206 310 145 128 69 53 50 76 313 254 188 292 273 261 284 270 245 225 211 201 200 196 180 183 180 178 171 172 177 170 166 166 168 163 155 138 131 128 103 48 38
345 337 327 114 70 32 81 86 30 1 6 263 248 193 254 267 260 254 268 254 225 198 189 188 183 181 186 183 180 175 174 180 176 172 178 183 177 170 170 171 176 170 151 127
353 301 287 232 172 173 154 140 158 200 233 281 312 235 253 276 288 276 283 275 198 182 182 189 190 186 186 187 183 180 183 186 180 181 189 189 182 177 179 177 176 183 190 195
180 265 299 280 200 143 140 167 162 138 176 277 283 288 299 302 339 343 356 23 37 199 186 189 185 182 186 189 189 185 183 185 186 189 186 184 185 183 184 183 179 186 192 174
157 242 298 318 62 40 129 142 108 128 169 255 287 276 263 293 296 312 325 314 287 264 180 185 186 189 192 191 189 180 182 188 186 183 188 189 189 187 181 172 179 185 187 166
135 168 312 7 165 182 97 103 112 125 159 169 259 273 234 238 265 279 281 275 258 229 202 198 197 190 181 164 166 177 183 183 181 184 186 181 182 179 172 179 192 190 181 171
145 134 252 271 268 231 188 173 152 163 218 185 198 264 279 265 275 280 293 297 283 242 211 190 176 159 159 168 176 180 184 185 188 183 177 179 175 168 172 188 194 186 181 177
133 122 54 333 332 346 156 159 156 139 136 172 193 256 304 343 329 313 299 297 286 262 238 194 162 174 183 183 186 189 191 189 182 170 171 174 175 176 188 197 191 181 176 173
120 142 183 208 226 230 252 236 187 153 178 213 224 249 288 303 303 305 297 285 275 253 226 212 209 207 201 194 190 192 195 186 176 170 174 183 190 193 196 194 185 181 177 177
112 181 220 239 245 234 242 243 216 210 208 210 234 238 257 261 265 272 274 273 274 259 249 228 217 216 206 194 195 196 192 180 175 175 183 194 195 187 182 183 184 178 177 188
96 168 209 268 263 246 255 250 230 229 225 225 240 257 255 258 259 266 263 252 258 252 242 235 225 214 207 203 199 195 194 184 172 178 188 187 180 178 179 182 177 173 175 178
153 146 153 254 277 300 260 240 221 221 221 206 228 243 256 262 254 251 250 244 246 249 243 233 226 221 215 207 198 196 194 178 173 181 180 178 178 180 184 176 169 179 183 175
160 151 160 218 174 238 249 237 202 216 242 224 228 240 239 244 248 256 244 236 243 246 243 238 228 225 217 202 194 189 177 174 180 184 184 181 178 183 181 174 182 190 182 182
175 155 149 161 221 269 282 243 189 202 252 228 223 245 254 265 306 288 252 233 236 237 237 234 226 221 207 195 186 173 176 178 183 193 193 189 184 183 181 188 195 193 184 190
124 140 147 169 208 242 251 237 189 153 261 248 219 237 241 188 259 268 262 247 252 249 242 237 222 204 194 193 175 174 181 183 197 203 201 192 186 187 192 197 194 191 190 196
134 144 178 197 224 257 255 232 129 185 246 256 229 233 216 216 232 255 274 264 258 251 246 232 206 205 201 185 173 181 188 202 207 197 189 185 188 192 193 190 188 178 181 179
184 181 194 177 206 249 236 147 182 223 254 255 249 242 235 249 265 276 277 270 270 269 261 229 211 217 195 179 177 187 204 209 192 179 183 187 189 192 188 177 178 175 172 177
204 197 195 198 217 244 227 224 245 235 245 255 252 256 242 254 271 275 278 276 266 256 258 239 213 207 196 188 186 197 210 189 175 177 188 191 186 187 180 180 181 177 179 186
249 192 190 241 258 259 266 269 265 244 244 251 248 246 235 247 262 268 280 277 270 260 254 229 195 200 215 206 205 209 199 179 176 186 192 187 180 183 185 187 186 186 191 195
230 187 211 249 269 286 279 259 257 263 263 264 258 244 232 233 255 256 267 267 261 262 246 213 201 210 220 208 209 206 187 175 180 188 192 189 187 185 190 198 201 200 206 201
210 200 212 243 242 235 262 268 268 268 264 256 251 258 251 233 243 249 255 245 238 240 240 233 223 219 226 218 217 208 190 179 180 189 193 192 191 189 190 193 215 227 218 214
Height
1522 1527 1532 1531 1530 1531 1534 1538 1540 1536 1530 1532 1534 1533 1530 1529 1530 1531 1532 1533 1533 1535 1537 1539 1541 1542 1544 1546 1547 1549 1550 1550 1551 1552 1552 1553 1553 1553 1553 1554 1554 1554 1554 1554
1528 1530 1525 1525 1527 1530 1533 1538 1538 1534 1529 1531 1534 1532 1528 1527 1528 1528 1528 1530 1531 1533 1535 1537 1539 1541 1542 1544 1546 1547 1549 1550 1551 1552 1552 1553 1553 1553 1554 1554 1554 1554 1554 1554
1528 1526 1522 1525 1528 1531 1534 1536 1536 1536 1532 1532 1534 1535 1530 1526 1526 1526 1526 1527 1528 1530 1532 1534 1537 1539 1541 1543 1545 1546 1548 1549 1550 1551 1552 1553 1553 1553 1554 1554 1554 1554 1554 1555
1526 1523 1523 1525 1528 1529 1536 1529 1530 1532 1539 1544 1540 1550 1534 1529 1526 1524 1523 1524 1525 1527 1529 1532 1534 1536 1539 1541 1543 1545 1547 1549 1550 1551 1552 1552 1553 1553 1553 1554 1554 1554 1555 1555
1526 1523 1524 1527 1526 1526 1529 1527 1529 1533 1538 1545 1543 1549 1541 1530 1528 1523 1521 1520 1521 1523 1526 1529 1531 1534 1537 1540 1542 1544 1546 1548 1549 1550 1551 1552 1552 1553 1553 1554 1554 1555 1555 1555
1524 1522 1523 1524 1523 1524 1526 1530 1534 1540 1545 1554 1546 1550 1546 1534 1527 1522 1518 1517 1518 1520 1523 1526 1529 1532 1535 1538 1540 1542 1544 1546 1548 1550 1551 1552 1552 1553 1553 1554 1554 1555 1555 1556
1529 1525 1522 1522 1525 1526 1529 1540 1554 1556 1560 1557 1544 1546 1542 1525 1521 1519 1517 1515 1516 1518 1520 1523 1526 1529 1532 1535 1538 1540 1542 1544 1546 1548 1550 1551 1552 1552 1553 1554 1554 1555 1555 1556
1538 1538 1525 1522 1525 1529 1531 1538 1554 1561 1562 1556 1545 1546 1533 1521 1519 1517 1516 1515 1515 1516 1518 1521 1524 1527 1529 1532 1535 1538 1540 1543 1545 1547 1548 1550 1551 1552 1553 1553 1554 1555 1555 1555
1538 1537 1524 1521 1521 1525 1532 1537 1538 1550 1551 1556 1550 1541 1528 1519 1518 1516 1515 1514 1514 1516 1517 1520 1522 1525 1528 1530 1533 1536 1538 1541 1543 1545 1547 1549 1550 1551 1552 1553 1554 1554 1555 1555
1530 1536 1527 1523 1522 1524 1527 1533 1543 1550 1556 1560 1551 1544 1537 1523 1520 1517 1516 1515 1515 1516 1517 1519 1521 1524 1526 1529 1531 1534 1536 1539 1541 1543 1545 1547 1549 1550 1551 1552 1553 1553 1554 1554
1527 1535 1533 1527 1528 1530 1532 1535 1540 1548 1550 1557 1557 1547 1524 1521 1518 1518 1516 1515 1514 1515 1517 1519 1520 1522 1525 1527 1529 1532 1535 1537 1539 1541 1543 1545 1547 1548 1550 1551 1551 1552 1553 1553
1527 1535 1540 1532 1525 1524 1525 1529 1537 1546 1549 1551 1553 1545 1518 1518 1517 1516 1515 1514 1514 1515 1516 1518 1520 1521 1523 1525 1527 1529 1532 1534 1537 1539 1541 1543 1545 1546 1548 1549 1550 1551 1552 1552
1527 1535 1544 1540 1535 1528 1526 1527 1531 1537 1545 1551 1552 1540 1517 1517 1516 1515 1515 1514 1514 1514 1515 1516 1518 1519 1520 1522 1525 1527 1529 1532 1534 1537 1539 1541 1542 1544 1545 1547 1548 1549 1550 1551
1523 1532 1539 1541 1536 1530 1528 1527 1529 1534 1544 1546 1541 1532 1521 1518 1516 1514 1514 1514 1513 1514 1514 1515 1516 1517 1518 1520 1522 1524 1526 1529 1532 1534 1536 1538 1540 1541 1543 1545 1546 1547 1548 1549
1522 1530 1529 1528 1525 1525 1524 1524 1526 1529 1530 1535 1530 1527 1520 1515 1514 1513 1513 1512 1512 1512 1512 1513 1514 1515 1516 1518 1520 1522 1524 1526 1528 1531 1533 1535 1537 1538 1540 1542 1543 1544 1545 1546
1524 1528 1528 1528 1523 1523 1524 1521 1521 1522 1522 1524 1523 1521 1513 1512 1512 1511 1510 1510 1510 1509 1510 1510 1511 1513 1514 1515 1517 1519 1521 1523 1525 1527 1529 1532 1533 1535 1537 1539 1540 1541 1543 1544
1526 1529 1533 1533 1526 1524 1526 1517 1516 1516 1515 1517 1519 1514 1510 1510 1509 1508 1507 1507 1507 1507 1507 1508 1509 1510 1511 1512 1514 1515 1517 1520 1522 1524 1526 1528 1530 1532 1534 1535 1537 1538 1540 1541
1523 1528 1534 1534 1530 1533 1518 1508 1508 1510 1509 1509 1508 1507 1507 1505 1505 1505 1505 1504 1504 1504 1504 1505 1506 1507 1508 1509 1511 1513 1515 1517 1519 1521 1523 1525 1527 1528 1530 1532 1533 1535 1536 1538
1517 1524 1533 1536 1533 1525 1513 1506 1506 1508 1508 1504 1504 1503 1503 1502 1502 1501 1501 1501 1501 1501 1501 1502 1503 1504 1505 1506 1508 1510 1512 1513 1515 1517 1519 1521 1523 1525 1527 1528 1529 1531 1533 1534
1516 1519 1529 1534 1531 1527 1510 1501 1501 1505 1507 1500 1500 1500 1500 1501 1504 1499 1497 1497 1497 1497 1498 1498 1499 1500 1501 1503 1504 1506 1508 1510 1512 1514 1516 1518 1520 1521 1523 1524 1526 1528 1529 1531
1520 1523 1526 1529 1528 1517 1503 1499 1501 1511 1506 1497 1496 1497 1497 1497 1497 1495 1494 1494 1493 1494 1494 1495 1495 1496 1498 1499 1501 1502 1504 1506 1508 1511 1513 1515 1516 1518 1519 1521 1522 1524 1525 1527
1515 1520 1523 1524 1525 1516 1498 1498 1501 1499 1495 1494 1494 1494 1494 1493 1493 1492 1491 1490 1490 1490 1491 1491 1492 1492 1494 1496 1497 1498 1500 1502 1505 1507 1509 1511 1513 1514 1515 1517 1518 1520 1521 1523
1509 1508 1509 1509 1506 1497 1494 1494 1493 1493 1492 1491 1491 1491 1491 1490 1489 1488 1488 1487 1487 1487 1488 1488 1488 1489 1491 1492 1494 1495 1497 1499 1501 1503 1505 1507 1509 1510 1511 1512 1514 1515 1517 1518
1503 1501 1503 1502 1496 1492 1491 1490 1489 1489 1489 1488 1488 1487 1487 1486 1485 1485 1485 1484 1484 1484 1485 1485 1485 1486 1487 1488 1490 1492 1493 1495 1497 1499 1501 1502 1504 1506 1507 1508 1510 1511 1512 1514
1498 1498 1499 1497 1492 1489 1486 1485 1485 1484 1484 1483 1483 1483 1483 1483 1482 1482 1481 1481 1481 1481 1481 1481 1481 1482 1483 1484 1486 1488 1489 1491 1493 1494 1496 1498 1499 1501 1503 1504 1505 1506 1508 1510
1493 1493 1494 1491 1486 1486 1482 1481 1481 1480 1479 1479 1478 1478 1478 1479 1478 1478 1478 1478 1478 1478 1477 1477 1478 1479 1479 1480 1481 1483 1485 1487 1488 1489 1491 1493 1495 1496 1498 1499 1500 1502 1504 1505